Weather History for El Centro, CA

Change the Weather History Date:

Thursday, August 2, 2012

  Actual Average Record
Temperature  
Mean Temperature 91 °F -  
Max Temperature 102 °F 105 °F 111 °F (2011)
Min Temperature 80 °F 79 °F 73 °F (2013)
Cooling Degree Days 26    
Growing Degree Days 41 (Base 50)    
Moisture  
Dew Point 61 °F    
Average Humidity 39    
Maximum Humidity 67    
Minimum Humidity 24    
Precipitation  
Precipitation 0.00 in - - ()
Sea Level Pressure  
Sea Level Pressure 29.83 in    
Wind  
Wind Speed 6 mph (WSW)    
Max Wind Speed 14 mph    
Max Gust Speed -    
Visibility 10 miles    
Events      
Averages and records for this station are not official NWS values.
T = Trace of Precipitation, MM = Missing Value Source: NWS Daily Summary

Daily Weather History Graph

Daily Weather History Graph

Search for Another Location

Airport:

Trip Planner

Search our weather history database for the weather conditions in past years. The results will help you decide how hot, cold, wet, or windy it might be!

Date:

Astronomy

Aug. 02, 2012 Rise Set
Actual Time 5:57 AM PDT 7:39 PM PDT
Civil Twilight 5:30 AM PDT 8:06 PM PDT
Nautical Twilight 4:58 AM PDT 8:38 PM PDT
Astronomical Twilight 4:24 AM PDT 9:12 PM PDT
Moon 7:55 PM PDT (8/2) 6:33 AM PDT (8/2)
Length of Visible Light 14h 35m
Length of Day
13h 42m
Waxing Gibbous, 99% of the Moon is Illuminated
Aug 2
Waxing Gibbous
Aug 9
Last Quarter
Aug 17
New
Aug 24
First Quarter
Aug 31
Full

Hourly Weather History & Observations

Time (PDT) Temp. Heat Index Dew Point Humidity Pressure Visibility Wind Dir Wind Speed Gust Speed Precip Events Conditions
12:56 AM 86.0 °F 85.0 °F 57.9 °F 38% 29.89 in 10.0 mi WSW 9.2 mph - N/A   Clear
1:56 AM 82.9 °F 84.0 °F 63.0 °F 51% 29.88 in 10.0 mi West 6.9 mph - N/A   Scattered Clouds
2:56 AM 82.0 °F 84.5 °F 66.9 °F 60% 29.87 in 10.0 mi WSW 4.6 mph - N/A   Clear
3:56 AM 80.1 °F 82.7 °F 68.0 °F 67% 29.86 in 10.0 mi WSW 3.5 mph - N/A   Clear
4:56 AM 81.0 °F 84.1 °F 69.1 °F 67% 29.87 in 10.0 mi WNW 4.6 mph - N/A   Clear
5:56 AM 80.1 °F 82.3 °F 66.9 °F 64% 29.88 in 10.0 mi West 5.8 mph - N/A   Scattered Clouds
6:56 AM 81.0 °F 83.3 °F 66.9 °F 62% 29.90 in 10.0 mi West 5.8 mph - N/A   Scattered Clouds
7:56 AM 88.0 °F 90.3 °F 66.0 °F 48% 29.91 in 10.0 mi West 4.6 mph - N/A   Partly Cloudy
8:56 AM 91.9 °F 92.5 °F 62.1 °F 37% 29.91 in 10.0 mi NW 5.8 mph - N/A   Clear
9:56 AM 96.1 °F 95.6 °F 59.0 °F 29% 29.91 in 10.0 mi NNW 4.6 mph - N/A   Clear
10:56 AM 96.1 °F 97.3 °F 63.0 °F 33% 29.90 in 10.0 mi WNW 3.5 mph - N/A   Clear
12:56 PM 100.0 °F 99.2 °F 57.0 °F 24% 29.87 in 10.0 mi ESE 6.9 mph - N/A   Partly Cloudy
1:56 PM 100.9 °F 100.5 °F 57.9 °F 24% 29.85 in 10.0 mi Variable 3.5 mph - N/A   Partly Cloudy
2:56 PM 100.9 °F 100.5 °F 57.9 °F 24% 29.82 in 10.0 mi SSE 4.6 mph - N/A   Scattered Clouds
3:56 PM 102.9 °F 103.6 °F 60.1 °F 24% 29.79 in 10.0 mi ESE 6.9 mph - N/A   Scattered Clouds
4:56 PM 102.0 °F 102.2 °F 59.0 °F 24% 29.76 in 10.0 mi ESE 3.5 mph - N/A   Scattered Clouds
5:56 PM 102.0 °F 102.7 °F 60.1 °F 25% 29.75 in 10.0 mi SSW 6.9 mph - N/A   Scattered Clouds
6:56 PM 100.0 °F 101.8 °F 62.1 °F 29% 29.74 in 10.0 mi SSE 6.9 mph - N/A   Scattered Clouds
7:56 PM 97.0 °F 99.3 °F 64.0 °F 34% 29.74 in 10.0 mi South 5.8 mph - N/A   Scattered Clouds
8:56 PM 93.9 °F 92.2 °F 55.9 °F 28% 29.77 in 10.0 mi West 11.5 mph - N/A   Scattered Clouds
9:56 PM 93.9 °F 91.4 °F 53.1 °F 25% 29.78 in 10.0 mi SW 13.8 mph - N/A   Scattered Clouds
10:56 PM 91.9 °F 90.8 °F 57.9 °F 32% 29.78 in 10.0 mi SW 8.1 mph - N/A   Scattered Clouds
11:56 PM 88.0 °F 87.1 °F 59.0 °F 37% 29.77 in 10.0 mi Calm Calm - N/A   Clear